Flight Track Log - Related Links

Times and Time Zones

All times are in EDT time to prevent confusion due to time zone crossing. See the JIA2416 flight status page for this flight to view local times or setup timezone preferences in your user account.

Time Position Orientation Groundspeed Altitude Reporting Facility
EDT Latitude Longitude Course Direction KTS MPH feet Rate Location/Type
Sun 06:28:47 PM 35.1969 -80.9356 North 148 170 1,600  Level Atlanta Center
Sun 06:29:36 PM 35.1531 -80.9294 174° South 209 241 2,300 1,500 Climbing Atlanta Center
Sun 06:30:31 PM 35.1058 -80.8778 138° Southeast 290 334 4,200 2,182 Climbing Atlanta Center
Sun 06:31:04 PM 35.0939 -80.8200 104° East 290 334 5,500 2,258 Climbing Atlanta Center
Sun 06:32:04 PM 35.1508 -80.7569 42° Northeast 291 335 7,700 1,250 Climbing Atlanta Center
Sun 06:33:00 PM 35.2535 -80.5285 30° Northeast  Level FlightAware Approximate
Sun 06:33:04 PM 35.2139 -80.6983 37° Northeast 291 335 8,000  Level Atlanta Center
Sun 06:34:00 PM 35.3284 -80.4667 North  Level FlightAware Approximate
Sun 06:34:04 PM 35.2789 -80.6322 40° Northeast 291 335 9,700  Level Atlanta Center
Sun 06:35:04 PM 35.3433 -80.5556 44° Northeast 304 350 11,000 1,600 Climbing Atlanta Center
Sun 06:36:04 PM 35.3672 -80.4400 76° East 322 371 12,900 1,900 Climbing Atlanta Center
Sun 06:37:04 PM 35.3928 -80.3217 75° East 344 396 14,800 1,424 Climbing Atlanta Center
Sun 06:39:22 PM 35.4553 -80.0544 74° East 368 423 17,600 1,538 Climbing Washington Center
Sun 06:40:23 PM 35.4889 -79.9364 71° East 373 429 19,900 1,121 Climbing Washington Center
Sun 06:42:24 PM 35.5497 -79.6869 73° East 373 429 21,000 365 Climbing Washington Center
Sun 06:43:24 PM 35.5811 -79.5633 73° East 378 435 21,000  Level Washington Center
Sun 06:44:22 PM 35.6100 -79.4397 74° East 378 435 21,000  Level Washington Center
Sun 06:45:23 PM 35.6144 -79.3069 88° East 373 429 21,000  Level Washington Center
Sun 06:46:23 PM 35.6183 -79.1717 88° East 373 429 21,000  Level Washington Center
Sun 06:47:24 PM 35.6203 -79.0364 89° East 385 443 21,000  Level Washington Center
Sun 06:48:24 PM 35.6239 -78.9089 88° East 385 443 21,000  Level Washington Center
Sun 06:49:22 PM 35.6256 -78.7758 89° East 385 443 21,000 -605 Level Washington Center
Sun 06:50:23 PM 35.6294 -78.6278 88° East 385 443 19,800 -1,426 Descending Washington Center
Sun 06:51:24 PM 35.6308 -78.4847 89° East 396 456 18,100 -1,636 Descending Washington Center
Sun 06:52:24 PM 35.6300 -78.3442 90° East 401 461 16,500 -1,627 Descending Washington Center
Sun 06:53:22 PM 35.6311 -78.2039 89° East 401 461 14,900 -2,017 Descending Washington Center
Sun 06:54:23 PM 35.6336 -78.0786 89° East 394 453 12,500 -2,164 Descending Washington Center
Sun 06:55:24 PM 35.6547 -77.9719 76° East 332 382 10,500 -2,420 Descending Washington Center
Sun 06:56:22 PM 35.6878 -77.8783 66° East 314 361 7,700 -2,644 Descending Washington Center
Sun 06:57:22 PM 35.7186 -77.7869 67° East 300 345 5,300 -1,328 Descending Washington Center
Sun 06:58:24 PM 35.7517 -77.6958 66° East 289 333 5,000 -590 Descending Washington Center
Sun 06:59:24 PM 35.7864 -77.6097 64° Northeast 284 327 4,100 -1,017 Descending Washington Center
Sun 07:00:22 PM 35.8192 -77.5233 65° Northeast 279 321 3,000 -1,138 Descending Washington Center
Sun 07:02:00 PM 35.6866 -77.4233 149° Southeast  Level FlightAware Approximate
Sun 07:09:00 PM 35.6333 -77.3833 149° Southeast  Level FlightAware Approximate
Sun 07:10:00 PM 35.6353 -77.3853 149° Southeast  Level Estimated

Login

Don't have an account? Register now (free) for customized features, flight alerts, and more!